{"data":{"norad_id":47749,"intl_designator":"2021-017AD","name":"STARLINK-2163","alt_names":[],"object_type":"PAYLOAD","status":"ACTIVE","operator":null,"country":"US","launch_date":"2021-03-04","launch_site_code":"AFETR","launch_vehicle":null,"mission":null,"orbit_class":"UNKNOWN","rcs_meters":null,"size_class":null,"mass_kg":null,"dimensions":null,"purposes":["comms"],"wikipedia_slug":null,"has_3d_model":false,"image_url":null,"decayed_at":null,"tle_current":{"epoch":"2026-05-25T06:00:02.000160Z","epoch_age_seconds":63616,"freshness":"FRESH","line1":"1 47749U 21017AD  26145.25002315  .00344149  00000+0  34927-2 0  9999","line2":"2 47749  53.1533 188.4609 0001328  77.6425 231.1702 15.63582278  5822","mean_motion":15.63582278,"eccentricity":0.0001328,"inclination_deg":53.1533,"raan_deg":188.4609,"arg_perigee_deg":77.6425,"mean_anomaly_deg":231.1702,"bstar":0.0034927,"rev_number":582,"period_min":92.096208831551,"perigee_km":376.42206315632,"apogee_km":378.21631231978,"semimajor_km":6755.456187738,"source":"CELESTRAK","updated_at":"2026-05-25T13:38:16.567727Z"}}}